Location: Fort Worth, Tx
(32.7431°N, 97.3695°W)
Time: 03:19:37
(UTC-04:00)

Vanguard 3 - Pass Details

Date: 03 March 2024
Orbit: 510 x 3234 km, 33.3° (Epoch: 24 April)

Event Time Altitude Azimuth Distance (km) Brightness Sun altitude
Rises 01:49:19 0° 287° (WNW) 7,201 12.1 -63.8°
Reaches altitude 10° 01:54:22 10° 284° (WNW) 6,149 11.6 -63.7°
Enters shadow 01:57:46 18° 281° (WNW) 5,434 11.2 -63.6°
